Charlotte, MI

6:58 AM EST on February 20, 2017 (GMT -0500)
Charlotte

Weather History for KFPK - January, 2013

Change the Weather History Date:

Friday, January 4, 2013

  Actual Average (KLAN) Record (KLAN)
Temperature  
Mean Temperature 28 °F -  
Max Temperature 32 °F 31 °F 61 °F (1997)
Min Temperature 24 °F 14 °F -29 °F (1981)
Degree Days  
Heating Degree Days 37    
Moisture  
Dew Point 22 °F    
Average Humidity 77    
Maximum Humidity 87    
Minimum Humidity 68    
Precipitation  
Precipitation 0.00 in - - ()
Sea Level Pressure  
Sea Level Pressure 30.07 in    
Wind  
Wind Speed 11 mph (SW)    
Max Wind Speed 22 mph    
Max Gust Speed 30 mph    
Visibility 10 miles    
Events      
Averages and records for this station are not official NWS values.
T = Trace of Precipitation, MM = Missing Value Source: NWS Daily Summary

Daily Weather History Graph

Daily Weather History Graph

Search for Another Location

Airport or City:

Trip Planner

Search our weather history database for the weather conditions in past years. The results will help you decide how hot, cold, wet, or windy it might be!

Date:

Astronomy

Jan. 04, 2013 Rise Set
Actual Time 8:09 AM EST 5:19 PM EST
Civil Twilight 7:37 AM EST 5:51 PM EST
Nautical Twilight 7:02 AM EST 6:26 PM EST
Astronomical Twilight 6:28 AM EST 7:01 PM EST
Moon 12:02 AM EST (1/4) 11:41 AM EST (1/4)
Length of Visible Light 10h 14m
Length of Day
9h 10m
Waning Gibbous, 55% of the Moon is Illuminated
Jan 4
Waning Gibbous
Jan 4
Last Quarter
Jan 11
New
Jan 18
First Quarter
Jan 26
Full

Hourly Weather History & Observations

Time (EST) Temp. Windchill Dew Point Humidity Pressure Visibility Wind Dir Wind Speed Gust Speed Precip Events Conditions
12:16 AM 30.2 °F 22.6 °F 24.8 °F 80% 30.11 in 7.0 mi WSW 8.1 mph - N/A   Overcast
12:36 AM 30.2 °F 22.6 °F 24.8 °F 80% 30.11 in 7.0 mi WSW 8.1 mph - N/A   Overcast
12:56 AM 30.2 °F 22.6 °F 24.8 °F 80% 30.11 in 7.0 mi West 8.1 mph - N/A   Overcast
1:16 AM 30.2 °F 19.8 °F 24.8 °F 80% 30.10 in 10.0 mi West 13.8 mph 17.3 mph N/A   Overcast
1:36 AM 30.2 °F 22.6 °F 24.8 °F 80% 30.09 in 10.0 mi WSW 8.1 mph - N/A   Overcast
1:56 AM 30.2 °F 21.3 °F 23.0 °F 75% 30.08 in 10.0 mi WSW 10.4 mph 18.4 mph N/A   Overcast
2:16 AM 30.2 °F 21.3 °F 23.0 °F 75% 30.08 in 10.0 mi SW 10.4 mph 16.1 mph N/A   Overcast
2:36 AM 30.2 °F 21.3 °F 23.0 °F 75% 30.08 in 10.0 mi WSW 10.4 mph 21.9 mph N/A   Overcast
2:56 AM 30.2 °F 20.8 °F 23.0 °F 75% 30.09 in 10.0 mi WSW 11.5 mph 19.6 mph N/A   Overcast
3:16 AM 30.2 °F 20.8 °F 23.0 °F 75% 30.08 in 10.0 mi WSW 11.5 mph 19.6 mph N/A   Overcast
3:56 AM 30.2 °F 20.2 °F 23.0 °F 75% 30.07 in 10.0 mi West 12.7 mph - N/A   Overcast
4:16 AM 28.4 °F 14.7 °F 23.0 °F 80% 30.07 in 10.0 mi West 21.9 mph 29.9 mph N/A   Overcast
4:36 AM 28.4 °F 17.5 °F 23.0 °F 80% 30.07 in 10.0 mi West 13.8 mph 20.7 mph N/A   Overcast
4:56 AM 28.4 °F 14.7 °F 23.0 °F 80% 30.06 in 10.0 mi West 21.9 mph 28.8 mph N/A   Overcast
5:16 AM 28.4 °F 18.0 °F 23.0 °F 80% 30.06 in 10.0 mi WSW 12.7 mph 17.3 mph N/A   Overcast
5:36 AM 28.4 °F 18.0 °F 21.2 °F 74% 30.05 in 10.0 mi WSW 12.7 mph 21.9 mph N/A   Overcast
5:56 AM 28.4 °F 16.6 °F 21.2 °F 74% 30.05 in 10.0 mi WSW 16.1 mph 21.9 mph N/A   Overcast
6:16 AM 28.4 °F 18.0 °F 23.0 °F 80% 30.05 in 10.0 mi WSW 12.7 mph 19.6 mph N/A   Overcast
6:36 AM 28.4 °F 17.5 °F 23.0 °F 80% 30.05 in 10.0 mi WSW 13.8 mph 20.7 mph N/A   Overcast
7:16 AM 26.6 °F 14.7 °F 23.0 °F 86% 30.06 in 10.0 mi WSW 15.0 mph 20.7 mph N/A   Overcast
7:36 AM 26.6 °F 15.7 °F 21.2 °F 80% 30.05 in 10.0 mi WSW 12.7 mph 23.0 mph N/A   Mostly Cloudy
7:56 AM 26.6 °F 16.8 °F 21.2 °F 80% 30.05 in 10.0 mi WSW 10.4 mph - N/A   Scattered Clouds
8:16 AM 24.8 °F 14.6 °F 21.2 °F 86% 30.05 in 10.0 mi SW 10.4 mph 18.4 mph N/A   Scattered Clouds
8:36 AM 24.8 °F 14.6 °F 21.2 °F 86% 30.06 in 10.0 mi WSW 10.4 mph - N/A   Scattered Clouds
8:56 AM 24.8 °F 14.0 °F 21.2 °F 86% 30.07 in 10.0 mi SW 11.5 mph 18.4 mph N/A   Overcast
8:59 AM 25.2 °F 15.1 °F 21.0 °F 84% 30.07 in 10.0 mi SW 10.4 mph - N/A   Overcast
9:12 AM 25.3 °F 16.0 °F 21.2 °F 84% 30.07 in 10.0 mi SW 9.2 mph - N/A   Overcast
9:56 AM 24.8 °F 14.6 °F 21.2 °F 86% 30.07 in 10.0 mi WSW 10.4 mph 20.7 mph N/A   Overcast
10:16 AM 26.6 °F 16.2 °F 21.2 °F 80% 30.07 in 10.0 mi SW 11.5 mph 19.6 mph N/A   Overcast
10:36 AM 26.6 °F 15.7 °F 21.2 °F 80% 30.06 in 10.0 mi SW 12.7 mph 21.9 mph N/A   Overcast
10:56 AM 28.4 °F 17.0 °F 23.0 °F 80% 30.06 in 10.0 mi WSW 15.0 mph 24.2 mph N/A   Overcast
11:16 AM 28.4 °F 18.5 °F 23.0 °F 80% 30.06 in 10.0 mi WSW 11.5 mph 20.7 mph N/A   Overcast
11:56 AM 30.2 °F 18.5 °F 23.0 °F 75% 30.03 in 10.0 mi WSW 17.3 mph 24.2 mph N/A   Scattered Clouds
12:14 PM 31.6 °F 20.7 °F 23.5 °F 72% 30.03 in 10.0 mi WSW 16.1 mph 23.0 mph N/A   Clear
12:15 PM 31.6 °F 20.7 °F 23.5 °F 72% 30.03 in 10.0 mi WSW 16.1 mph 26.5 mph N/A   Clear
12:35 PM 31.1 °F 21.4 °F 23.0 °F 72% 30.02 in 10.0 mi SW 12.7 mph 20.7 mph N/A   Clear
12:55 PM 30.9 °F 19.1 °F 22.8 °F 72% 30.01 in 10.0 mi SW 18.4 mph 24.2 mph N/A   Clear
1:15 PM 31.6 °F 21.6 °F 23.0 °F 70% 30.01 in 10.0 mi WSW 13.8 mph 21.9 mph N/A   Clear
1:35 PM 32.0 °F 21.2 °F 22.8 °F 69% 30.00 in 10.0 mi SW 16.1 mph 20.7 mph N/A   Clear
1:55 PM 32.0 °F 22.1 °F 22.8 °F 69% 30.00 in 10.0 mi SW 13.8 mph 21.9 mph N/A   Clear
2:15 PM 32.0 °F 23.0 °F 22.6 °F 68% 30.00 in 10.0 mi SW 11.5 mph 25.3 mph N/A   Clear
2:35 PM 32.0 °F 20.1 °F 22.6 °F 68% 30.00 in 10.0 mi WSW 19.6 mph 27.6 mph N/A   Clear
2:55 PM 32.0 °F 20.5 °F 22.6 °F 68% 30.00 in 10.0 mi SW 18.4 mph 26.5 mph N/A   Clear
3:02 PM 32.0 °F 21.6 °F 22.8 °F 69% 30.01 in 10.0 mi SW 15.0 mph 26.5 mph N/A   Clear
3:35 PM 32.0 °F 22.5 °F 23.0 °F 69% 30.01 in 10.0 mi WSW 12.7 mph 20.7 mph N/A   Clear
3:55 PM 32.0 °F 22.5 °F 22.8 °F 69% 30.02 in 10.0 mi SW 12.7 mph 20.7 mph N/A   Clear
4:15 PM 32.0 °F 23.0 °F 22.6 °F 68% 30.03 in 10.0 mi WSW 11.5 mph 23.0 mph N/A   Clear
4:35 PM 32.0 °F 22.1 °F 22.8 °F 69% 30.03 in 10.0 mi SW 13.8 mph 18.4 mph N/A   Clear
4:55 PM 32.0 °F 22.5 °F 22.8 °F 69% 30.04 in 10.0 mi SW 12.7 mph - N/A   Scattered Clouds
5:15 PM 30.9 °F 22.8 °F 22.1 °F 70% 30.05 in 10.0 mi SW 9.2 mph - N/A   Scattered Clouds
5:35 PM 29.8 °F 20.9 °F 21.2 °F 70% 30.06 in 10.0 mi SW 10.4 mph - N/A   Scattered Clouds
5:55 PM 30.0 °F 20.5 °F 21.6 °F 71% 30.06 in 10.0 mi SW 11.5 mph - N/A   Overcast
6:15 PM 29.7 °F 20.1 °F 21.2 °F 71% 30.07 in 10.0 mi SW 11.5 mph 16.1 mph N/A   Overcast
6:35 PM 28.9 °F 20.4 °F 21.2 °F 73% 30.07 in 10.0 mi SSW 9.2 mph - N/A   Mostly Cloudy
6:55 PM 28.2 °F 18.9 °F 20.8 °F 74% 30.08 in 10.0 mi SSW 10.4 mph - N/A   Scattered Clouds
7:15 PM 28.0 °F 20.0 °F 21.0 °F 75% 30.08 in 10.0 mi SSW 8.1 mph - N/A   Clear
7:35 PM 27.9 °F 19.8 °F 21.0 °F 75% 30.09 in 10.0 mi SW 8.1 mph - N/A   Clear
7:55 PM 27.5 °F 19.3 °F 21.0 °F 77% 30.09 in 10.0 mi SW 8.1 mph - N/A   Clear
8:15 PM 27.5 °F 18.0 °F 21.2 °F 77% 30.10 in 10.0 mi SW 10.4 mph - N/A   Clear
8:35 PM 27.7 °F 19.6 °F 21.6 °F 78% 30.10 in 10.0 mi SW 8.1 mph 16.1 mph N/A   Clear
8:55 PM 27.5 °F 18.6 °F 21.9 °F 80% 30.10 in 10.0 mi SW 9.2 mph - N/A   Clear
9:15 PM 27.5 °F 18.6 °F 22.1 °F 80% 30.11 in 10.0 mi SW 9.2 mph - N/A   Clear
9:35 PM 27.9 °F 19.1 °F 22.8 °F 81% 30.11 in 10.0 mi SW 9.2 mph - N/A   Clear
9:55 PM 27.7 °F 18.8 °F 22.8 °F 82% 30.12 in 10.0 mi SW 9.2 mph - N/A   Clear
10:15 PM 27.9 °F 19.1 °F 23.2 °F 83% 30.12 in 10.0 mi WSW 9.2 mph - N/A   Clear
10:35 PM 27.3 °F 20.9 °F 22.8 °F 83% 30.13 in 10.0 mi WSW 5.8 mph - N/A   Clear
10:55 PM 27.1 °F 21.8 °F 22.8 °F 84% 30.14 in 10.0 mi SW 4.6 mph - N/A   Clear
11:15 PM 26.6 °F 20.0 °F 22.8 °F 86% 30.14 in 10.0 mi SW 5.8 mph - N/A   Clear
11:35 PM 26.6 °F 20.0 °F 22.8 °F 86% 30.15 in 10.0 mi SW 5.8 mph - N/A   Clear
11:55 PM 26.2 °F 18.6 °F 22.8 °F 87% 30.15 in 10.0 mi SW 6.9 mph - N/A   Clear